COSMOS 2341

Satellite information

Favourite Embed

Satellite Type and Status

PAYLOADIN ORBIT

Key statistics

Satellite COSMOS 2341 at a glance.

Uptime

10468

Days in orbit

Revolutions

≈ 13.7

Per day

Orbit

LEO

Low Earth Orbit

Inclination

82.9

Latest

Satellite identification and parameters

Extended collection of information and parameters for COSMOS 2341.

Object identification

Identified? True

Debris? False

Object name: COSMOS 2341

International designator: 1997-017A

Object number (NORAD): 24772

Object ID (CCSDS): 24772

Country: COMMONWEALTH OF INDEPENDENT STATES (CIS)

Current information (Y/N): Y

RCS size: LARGE

Orbital parameters

Period: 104.986 minutes

Inclination: 82.9224 deg

SMA: 7371.937 km

Apoapsis: 1013.571 km

Periapsis: 974.034 km

RAAN: 262.8909 deg

Eccentricy: 0.00268159

Argument of periapsis: 61.3125 deg

Mean anomaly: 52.7202 deg

Mean motion: 13.71608954 rev/day

Mean motion (dot): 0.00000086 rev/day2

B* drag term: 0.000078240292 1/REarth

Two-line elements (TLE)

Creation date: Dec. 12, 2025, 10:14 a.m.

Reference frame: TEME

Reference center: EARTH

Epoch: Dec. 12, 2025, 7:10 a.m. UTC

TLE line 0: 0 COSMOS 2341

TLE line 1: 1 24772U 97017A 25346.29876718 .00000086 00000-0 78240-4 0 9993

TLE line 2: 2 24772 82.9224 262.8909 0026816 61.3125 52.7202 13.71608954633451

Live tracking on map

Real-time ground track for satellite COSMOS 2341.

In-orbit conjunctions

A list of the most updated potential collisions computed for object COSMOS 2341.

Target Orbit TCA Probability of collision Miss distance Type
SL-16 DEB LEO 2025-03-05 03:49:23 0.0004573176 246.0 (m) DEBRIS
FENGYUN 1C DEB SSO 2024-11-12 22:14:13 0.0001525415 684.0 (m) DEBRIS

Associated space launch

Navigation satellite providing location information for the Tsiklon-B navigation system

COSMOS 2341 was lifted into orbit during the mission ‘Kosmos-3M | Parus 88’, on board a Kosmos-3M space rocket.

The launch took place on April 17, 1997, 1:03 p.m. from 132/1 (132L).

For more information about the launch, click the button.

Launch to space Kosmos-3M | Parus 88
Kosmos-3M | Parus 88

Agency: N/A

Status: Launch Successful

Launch date: April 17, 1997, 1:03 p.m. UTC

Rocket: Kosmos-3M

Launch pad: 132/1 (132L)

Location: Plesetsk Cosmodrome, Russian Federation

...

Latest news about this satellite

There are no fresh news available about this satellite. Check back as we update our databases every day.


Newsletter sign-up

Weekly statistics, charts and insights to help you stay on top of the space industry.